Location: Berg
(47.5788°N, 9.1664°E)
Time: 02:58:17
(UTC+00:00)

Daily predictions for brighter satellites

Satellite Brightness Start Highest point End
(mag) Time Altitude Azimuth Time Altitude Azimuth Time Altitude Azimuth
ATLAS CENTAUR R/B 4.3 00:07:56 10° WSW 00:14:01 69° NNW 00:30:53 10° ENE
Cosmos 1825 2.4 00:13:02 41° SSE 00:14:05 59° E 00:17:48 10° NNE
DELTA 2 R/B (1) 4.4 00:16:57 29° SSE 00:17:02 29° SSE 00:21:44 10° ESE
Cosmos 540 Rocket 4.0 00:15:11 28° SSE 00:17:25 45° ESE 00:22:17 10° NNE
Cosmos 1408 2.7 00:19:18 45° SW 00:20:12 64° W 00:23:53 10° N
Cosmos 990 Rocket 4.0 00:15:06 10° NNW 00:20:15 66° WSW 00:22:37 32° S
SL-16 R/B 3.2 00:19:56 16° WSW 00:24:05 40° NW 00:29:27 10° NNE
Cosmos 1242 Rocket 3.7 00:20:49 10° N 00:24:12 38° ENE 00:26:09 21° SE
Cosmos 405 Rocket 2.5 00:23:36 47° S 00:24:35 90° WNW 00:28:18 10° N
Cosmos 841 Rocket 4.1 00:23:03 27° SSE 00:25:27 46° ESE 00:30:21 10° NNE
Cosmos 2058 3.1 00:24:22 35° SSE 00:25:54 62° E 00:29:57 10° NNE
Cosmos 1656 Rocket 3.7 00:20:16 10° NNW 00:26:01 86° ENE 00:30:16 18° SSE
Cosmos 2221 2.8 00:21:54 10° N 00:26:11 62° ENE 00:28:23 27° SSE
USA 229 DEB 3.6 00:22:35 24° SW 00:26:45 86° NW 00:33:41 10° NE
USA 229 3.6 00:22:43 24° SW 00:26:51 86° NW 00:33:47 10° NE
Meteor 2-13 Rocket 4.5 00:23:59 29° SSW 00:27:22 79° W 00:33:34 10° N
Cosmos 2237 Rocket 4.5 00:23:54 10° W 00:27:46 19° NW 00:31:39 10° N
X-37B 1.1 00:28:47 43° SE 00:28:47 43° SE 00:31:15 10° E
Cosmos 1898 Rocket 3.5 00:28:22 10° NNW 00:33:34 64° WSW 00:36:10 29° S
Cosmos 1937 Rocket 3.5 00:28:32 10° NNW 00:33:54 86° WSW 00:37:19 23° SSE
Nadezhda 4 Rocket 4.0 00:30:48 26° S 00:34:28 74° E 00:40:35 10° NNE
NOSS 3-1 (C) 3.9 00:31:11 15° WSW 00:35:38 53° NW 00:42:01 10° NE
Cosmos 2369 Rocket 2.4 00:30:29 10° NW 00:36:04 54° WSW 00:38:58 27° S
YAOGAN 11 4.1 00:35:34 33° S 00:37:29 68° WSW 00:41:59 10° NNW
Aureole 3 Rocket 4.0 00:34:09 10° N 00:37:55 46° E 00:41:59 14° SSE
Cosmos 1356 4.3 00:37:29 31° WSW 00:38:19 37° WNW 00:41:32 10° N
USA 307 4.0 00:38:07 27° SSE 00:38:54 29° SE 00:42:35 10° ENE
SJ 16-02 3.1 00:36:35 10° NW 00:39:23 17° W 00:40:01 16° WSW
CREW DRAGON DEMO-1 DEB 2.6 00:40:05 58° NW 00:40:13 59° NNW 00:42:38 10° ENE
USA 215 4.3 00:38:53 10° NE 00:45:02 46° NNW 00:51:12 10° W
NOSS 3-1 (A) 3.5 00:42:41 21° SW 00:46:26 69° NW 00:52:54 10° NE
ATLAS 5 CENTAUR R/B 2.6 00:48:04 24° SSE 00:49:27 30° ESE 00:53:13 10° ENE
Cosmos 2263 4.3 00:44:11 10° NW 00:49:44 57° WSW 00:53:06 23° S
CZ-4 R/B 3.9 00:46:29 10° N 00:51:08 69° WNW 00:53:33 28° SSW
Helios 1B rocket 3.4 00:48:00 10° NNE 00:51:51 38° E 00:54:08 20° SSE
USA 308 3.7 00:53:26 29° S 00:54:44 36° SE 00:58:40 10° ENE
Cosmos 1814 Rocket 4.4 00:51:51 24° S 00:54:51 55° ESE 00:59:53 10° NNE
Cosmos 1633 3.2 00:53:22 27° SSE 00:54:57 47° E 00:58:21 10° NNE
ADEOS Rocket 4.1 00:48:27 10° SE 00:55:22 51° ENE 01:01:39 10° N
FALCON 9 DEB 4.3 00:54:17 10° NW 00:57:14 40° NNE 01:00:10 10° E
CZ-3B R/B 3.8 00:48:38 10° WNW 00:57:38 42° N 01:00:44 10° ENE
UNK 3.9 00:54:25 17° SSE 00:57:59 71° ENE 01:02:36 10° N
Helios 1A 3.5 01:00:06 29° SSW 01:01:39 41° W 01:05:38 10° NNW
Cosmos 1606 2.6 00:58:24 10° N 01:02:15 85° W 01:04:12 28° S
FALCON 9 DEB 4.4 01:01:02 10° NW 01:03:59 38° NNE 01:06:57 10° E
Cosmos 1570 Rocket 4.2 01:01:44 24° S 01:04:53 67° ESE 01:10:05 10° NNE
SL-16 R/B 2.5 00:59:52 14° SSE 01:05:17 88° WSW 01:11:31 10° NNW
FALCON 9 DEB 4.2 01:04:31 10° NW 01:07:30 42° NNE 01:10:29 10° E
Cosmos 1933 4.5 01:03:46 10° N 01:07:40 41° ENE 01:11:33 10° SSE
Cosmos 372 Rocket 3.9 01:03:37 10° NNW 01:08:53 75° WSW 01:13:11 15° SSE
USA 305 3.2 01:10:32 28° SSW 01:12:30 53° SE 01:16:39 10° ENE
USA 290 2.5 01:11:15 31° S 01:12:31 56° ESE 01:15:42 10° NNE
Lacrosse 4 Rocket 1.3 01:11:05 10° NNW 01:15:13 82° ENE 01:19:15 10° SE
CZ-4C R/B 4.2 01:13:16 10° SE 01:15:18 12° ESE 01:17:26 10° E
Cosmos 1092 Rocket 4.0 01:11:05 20° S 01:15:30 89° E 01:21:42 10° N
Cosmos 2098 Rocket 3.7 01:15:08 22° SSW 01:18:24 54° W 01:22:44 10° N
BREEZE-M R/B 3.1 01:18:11 25° SSW 01:19:50 44° SSE 01:24:47 10° ENE
Cosmos 2208 Rocket 4.2 01:16:33 21° S 01:20:13 74° ESE 01:25:41 10° NNE
USA 267 4.5 01:19:19 18° SW 01:20:26 19° WSW 01:24:52 10° W
Resurs 1-4 Rocket 2.1 01:15:21 10° NNE 01:20:41 82° WNW 01:24:24 21° SSW
Meteor 2-19 Rocket 4.4 01:16:27 20° SSW 01:20:54 84° W 01:27:04 10° N
Cosmos 1437 Rocket 4.0 01:17:54 10° NW 01:21:07 25° W 01:22:18 21° WSW
Meteor 1-29 3.9 01:21:25 10° NNE 01:24:41 41° E 01:26:57 17° SSE
OE (NEXTSAT) 4.2 01:22:34 19° WSW 01:24:54 66° S 01:28:19 10° E
SL-4 R/B 2.9 01:22:51 10° WNW 01:26:27 44° N 01:29:50 10° E
Cosmos 1943 Rocket 4.2 01:27:47 10° W 01:28:18 10° W 01:28:50 10° W
MINOTAUR 4 R/B 4.1 01:26:32 14° SSE 01:29:29 77° ENE 01:33:02 10° N
Landsat 4 4.5 01:26:52 10° NNE 01:30:32 46° E 01:33:22 15° S
NPP 3.7 01:26:27 10° NNE 01:31:53 83° WNW 01:35:57 18° SSW
NOSS 2-2 (D) 3.0 01:30:21 25° SSW 01:32:11 76° SE 01:35:55 10° NE
ADEOS II 2.4 01:27:06 10° NNE 01:32:20 62° ESE 01:36:49 14° S
USA 306 2.9 01:32:05 21° SW 01:34:52 73° SSE 01:39:07 10° ENE
Cosmos 921 Rocket 3.4 01:32:38 21° SW 01:35:13 49° WNW 01:39:18 10° N
Lacrosse 5 rocket 3.1 01:32:09 10° NW 01:35:23 31° NNE 01:38:41 10° E
Meteor 2-3 Rocket 4.0 01:31:29 14° S 01:36:20 67° E 01:41:54 10° NNE
FALCON 9 DEB 3.2 01:33:42 10° WNW 01:37:00 48° SW 01:40:16 10° SE
Cosmos 1943 4.0 01:33:25 14° WSW 01:37:50 41° NW 01:43:12 10° NNE
CZ-2D R/B 2.3 01:34:15 10° N 01:39:22 59° WNW 01:43:15 17° SW
Alouette 2 Rocket 4.3 01:37:14 10° N 01:40:41 45° ENE 01:44:36 10° SSE
ASTEX 1 4.4 01:40:47 10° SSE 01:45:29 45° ENE 01:50:11 10° N
IDEFIX/ARIANE 42P 3.4 01:41:39 10° NNE 01:46:43 46° E 01:51:42 10° S
Cosmos 2151 3.0 01:44:56 18° SSW 01:47:55 64° WNW 01:52:07 10° N
EXPRESS MD2 4.4 01:41:56 10° WSW 01:51:22 86° SSE 01:55:46 10° ENE
AQUA 4.0 01:46:45 10° N 01:51:29 64° WNW 01:55:17 16° SSW
Cosmos 1076 Rocket 4.4 01:49:45 17° SW 01:52:29 34° WNW 01:56:24 10° N
Cosmos 1437 4.1 01:53:00 10° NW 01:55:06 19° W 01:55:51 17° WSW
Meteor 1-26 Rocket 4.3 01:49:38 10° NNW 01:55:31 84° W 02:01:30 10° S
Cosmos 1242 Rocket 4.5 01:56:29 10° NW 01:58:42 16° W 02:00:05 13° WSW
DELTA 2 R/B (1) 4.2 01:57:42 10° WSW 02:02:45 36° S 02:07:48 10° ESE
X-37B 1.1 02:01:34 10° W 02:04:33 37° SSW 02:07:31 10° SE
CBERS-1 4.2 02:00:54 10° NNE 02:06:04 76° ESE 02:11:12 10° S
IRS-1D 3.5 02:01:08 10° NNE 02:06:18 87° WNW 02:11:14 11° SSW
BREEZE-M DEB (TANK) 1.3 02:04:23 10° WNW 02:06:45 83° NNE 02:09:21 10° ESE
Cosmos 1812 3.5 02:06:16 10° N 02:10:03 54° ENE 02:13:48 10° SSE
Cosmos 1553 Rocket 4.1 02:04:04 10° NNW 02:10:19 67° W 02:16:27 10° S
NOSS 2-2 (E) 4.2 02:08:02 11° WSW 02:11:11 38° NW 02:14:55 10° NNE
Cosmos 2292 Rocket 2.9 02:09:53 15° SSW 02:12:08 49° WNW 02:15:04 10° N
SL-08 R/B 4.4 02:08:41 10° SE 02:13:09 48° ENE 02:17:44 10° N
CREW DRAGON DEMO-1 DEB 4.3 02:11:58 10° WNW 02:14:10 28° N 02:16:22 10° ENE
Cosmos 1697 Rocket 4.4 02:10:07 10° NNW 02:15:23 38° NE 02:20:37 10° ESE
FALCON 9 DEB 2.8 02:12:51 10° WNW 02:16:00 84° SSW 02:19:06 10° ESE
S3M 4.0 02:10:14 10° N 02:16:25 86° W 02:22:38 10° S
Cosmos 1782 2.9 02:13:00 10° NNW 02:16:57 59° W 02:20:53 10° S
USA 281 3.2 02:11:03 10° SSE 02:17:37 83° WSW 02:24:15 10° NNW
Meteor 2-14 Rocket 4.5 02:12:00 10° SSW 02:18:05 80° W 02:24:16 10° N
USA 307 3.1 02:14:23 10° WSW 02:18:37 68° NNW 02:22:52 10° ENE
Cosmos 1271 Rocket 2.6 02:15:10 10° NNW 02:18:56 83° W 02:22:41 10° S
MSX 4.2 02:13:23 10° NNE 02:19:08 65° ESE 02:24:50 10° S
NOSS 2-2 (C) 4.2 02:21:39 10° WSW 02:24:53 36° NW 02:28:30 10° NNE
CZ-4C R/B 3.0 02:21:42 10° S 02:25:08 66° WSW 02:28:36 10° NNW
Helios 1B rocket 4.0 02:23:41 10° NNW 02:26:53 22° WNW 02:30:03 10° WSW
ERBS 2.5 02:24:39 12° SW 02:27:35 56° SE 02:30:46 10° ENE
Cosmos 1328 Rocket 3.6 02:26:38 10° NNW 02:30:57 64° W 02:35:17 10° S
NOSS 3-2 (A) 4.2 02:24:23 10° NW 02:31:52 85° NE 02:40:25 10° SE
FALCON 9 DEB 3.1 02:29:54 10° WNW 02:32:53 45° SW 02:35:50 10° SE
ATLAS 5 CENTAUR R/B 2.6 02:30:07 10° WSW 02:33:54 37° NW 02:38:12 10° NNE
USA 308 3.4 02:30:24 10° WSW 02:34:36 58° NNW 02:38:49 10° ENE
SeaSat 1 2.7 02:30:34 10° NNE 02:35:31 71° ESE 02:40:26 10° SSW
Spot 1 4.5 02:30:53 10° S 02:35:55 66° WSW 02:40:47 10° NNW
FALCON 9 DEB 3.0 02:36:44 10° WNW 02:39:46 51° SW 02:42:48 10° SE
Meteor 2-6 Rocket 4.3 02:33:58 10° NNW 02:39:53 80° W 02:45:38 10° S
ADEOS Rocket 4.0 02:34:22 10° SSW 02:40:58 36° W 02:47:04 10° NNW
FALCON 9 DEB 3.3 02:40:12 10° WNW 02:43:08 39° SW 02:46:02 10° SE
ALOS 4.5 02:39:41 10° NE 02:43:26 24° E 02:47:11 10° SE
Cosmos 1980 Rocket 4.2 02:40:01 10° NNW 02:45:08 35° NE 02:50:13 10° ESE
